| time (UTC) | temp F | wind direction | speed MPH | gust MPH | rain 1hr in | rain 24hr in | rain mn in | humidity % | barometer mb |
| 20260905044526 | 53 | 191 | 1.0 | 2.0 | 0.00 | 0.00 | 0.00 | 100 | 1016.2 |
| 20260905043030 | 53 | 157 | 0.0 | 1.0 | 0.00 | 0.00 | 0.00 | 100 | 1016.1 |
| 20260905041530 | 53 | 157 | 0.0 | 2.0 | 0.00 | 0.00 | 0.00 | 100 | 1016.1 |
| 20260905040104 | 53 | 157 | 0.0 | 2.0 | 0.00 | 0.00 | 0.00 | 89 | 1016.0 |
| 20260905033030 | 53 | 134 | 3.0 | 4.0 | 0.00 | 0.00 | 0.00 | 100 | 1015.6 |
| 20260905030032 | 56 | 129 | 0.0 | 2.0 | 0.00 | 0.00 | 0.00 | 82 | 1015.5 |
| 20260905024531 | 57 | 67 | 0.0 | 3.0 | 0.00 | 0.00 | 0.00 | 78 | 1015.4 |
| 20260905023031 | 58 | 63 | 2.0 | 4.0 | 0.00 | 0.00 | 0.00 | 75 | 1015.6 |
| 20260905021603 | 60 | 28 | 4.0 | 7.0 | 0.00 | 0.00 | 0.00 | 71 | 1015.4 |
| 20260905013108 | 63 | 280 | 0.0 | 2.0 | 0.00 | 0.00 | 0.00 | 72 | 1014.8 |
| 20260905011530 | 63 | 337 | 0.0 | 1.0 | 0.00 | 0.00 | 0.00 | 72 | 1014.9 |
| 20260905010030 | 61 | 7 | 2.0 | 4.0 | 0.00 | 0.00 | 0.00 | 72 | 1014.9 |
| 20260905004606 | 61 | 315 | 0.0 | 0.0 | 0.00 | 0.00 | 0.00 | 72 | 1014.7 |
| 20260905003032 | 61 | 312 | 0.0 | 3.0 | 0.00 | 0.00 | 0.00 | 71 | 1014.6 |
| 20260905001532 | 61 | 311 | 2.0 | 5.0 | 0.00 | 0.00 | 0.00 | 71 | 1014.6 |
| 20260905000031 | 60 | 296 | 3.0 | 5.0 | 0.00 | 0.01 | 0.00 | 72 | 1014.6 |
| 20260904234531 | 61 | 306 | 3.0 | 5.0 | 0.00 | 0.01 | 0.00 | 70 | 1014.6 |
| 20260904233030 | 61 | 267 | 2.0 | 4.0 | 0.00 | 0.01 | 0.00 | 70 | 1014.5 |
| 20260904231532 | 62 | 42 | 0.0 | 2.0 | 0.00 | 0.01 | 0.00 | 71 | 1014.5 |
| 20260904230030 | 62 | 52 | 2.0 | 4.0 | 0.00 | 0.01 | 0.00 | 71 | 1014.5 |
| 20260904224531 | 61 | 116 | 0.0 | 3.0 | 0.00 | 0.01 | 0.00 | 72 | 1014.5 |
| 20260904223031 | 60 | 142 | 3.0 | 7.0 | 0.00 | 0.01 | 0.00 | 74 | 1014.4 |
| 20260904221531 | 60 | 122 | 2.0 | 4.0 | 0.00 | 0.01 | 0.00 | 76 | 1014.4 |
| 20260904220105 | 60 | 145 | 1.0 | 4.0 | 0.00 | 0.01 | 0.00 | 77 | 1014.4 |
| 20260904214532 | 61 | 138 | 2.0 | 4.0 | 0.00 | 0.01 | 0.00 | 76 | 1014.3 |
| 20260904213030 | 61 | 252 | 0.0 | 3.0 | 0.00 | 0.01 | 0.00 | 76 | 1014.2 |
| 20260904211534 | 59 | 180 | 0.0 | 3.0 | 0.00 | 0.01 | 0.00 | 80 | 1014.0 |
| 20260904201529 | 60 | 127 | 1.0 | 4.0 | 0.00 | 0.01 | 0.00 | 79 | 1014.1 |
| 20260904200110 | 61 | 123 | 0.0 | 4.0 | 0.00 | 0.01 | 0.00 | 78 | 1014.1 |
| 20260904194541 | 60 | 112 | 1.0 | 5.0 | 0.00 | 0.01 | 0.00 | 80 | 1014.3 |
| 20260904191527 | 57 | 46 | 0.0 | 4.0 | 0.00 | 0.01 | 0.00 | 83 | 1014.5 |
| 20260904184603 | 56 | 153 | 0.0 | 3.0 | 0.00 | 0.01 | 0.00 | 84 | 1014.5 |
| 20260904181532 | 56 | 287 | 0.0 | 2.0 | 0.00 | 0.01 | 0.00 | 84 | 1014.4 |
| 20260904173030 | 53 | 45 | 2.0 | 4.0 | 0.00 | 0.01 | 0.00 | 91 | 1014.3 |
| 20260904171530 | 53 | 72 | 2.0 | 3.0 | 0.00 | 0.01 | 0.00 | 90 | 1014.3 |
| 20260904161531 | 51 | 350 | 2.0 | 4.0 | 0.00 | 0.01 | 0.00 | 94 | 1014.0 |
| 20260904154529 | 50 | 30 | 1.0 | 3.0 | 0.00 | 0.01 | 0.00 | 95 | 1013.9 |
| 20260904153030 | 49 | 22 | 0.0 | 2.0 | 0.00 | 0.01 | 0.00 | 95 | 1013.8 |
| 20260904150029 | 49 | 22 | 0.0 | 2.0 | 0.00 | 0.01 | 0.00 | 100 | 1013.4 |
| 20260904144530 | 49 | 15 | 2.0 | 3.0 | 0.00 | 0.01 | 0.00 | 100 | 1013.4 |
| 20260904143034 | 48 | 315 | 0.0 | 2.0 | 0.00 | 0.01 | 0.00 | 100 | 1013.3 |
| 20260904141528 | 48 | 315 | 0.0 | 0.0 | 0.00 | 0.01 | 0.00 | 100 | 1013.1 |
| 20260904140033 | 48 | 315 | 0.0 | 0.0 | 0.00 | 0.01 | 0.00 | 100 | 1012.9 |
| 20260904134526 | 48 | 359 | 0.0 | 0.0 | 0.00 | 0.01 | 0.00 | 100 | 1012.8 |
| 20260904131531 | 48 | 22 | 0.0 | 0.0 | 0.00 | 0.02 | 0.00 | 100 | 1012.6 |
| 20260904130106 | 48 | 22 | 0.0 | 0.0 | 0.00 | 0.02 | 0.00 | 100 | 1012.5 |
| 20260904124606 | 48 | 37 | 0.0 | 2.0 | 0.00 | 0.03 | 0.00 | 100 | 1012.5 |
| 20260904123028 | 48 | 90 | 0.0 | 0.0 | 0.00 | 0.04 | 0.00 | 100 | 1012.5 |
| 20260904121541 | 48 | 111 | 0.0 | 2.0 | 0.00 | 0.05 | 0.00 | 100 | 1012.4 |
| 20260904120029 | 48 | 202 | 0.0 | 0.0 | 0.00 | 0.06 | 0.00 | 100 | 1012.3 |
| 20260904114530 | 48 | 202 | 0.0 | 0.0 | 0.00 | 0.06 | 0.00 | 100 | 1012.2 |
| 20260904113110 | 48 | 206 | 0.0 | 0.0 | 0.00 | 0.07 | 0.00 | 100 | 1012.0 |
| 20260904111530 | 48 | 270 | 0.0 | 0.0 | 0.00 | 0.08 | 0.00 | 100 | 1011.9 |
| 20260904110029 | 48 | 24 | 0.0 | 3.0 | 0.00 | 0.09 | 0.00 | 100 | 1011.8 |
| 20260904104531 | 48 | 67 | 1.0 | 3.0 | 0.00 | 0.10 | 0.00 | 100 | 1011.6 |
| 20260904103030 | 48 | 156 | 0.0 | 3.0 | 0.00 | 0.11 | 0.00 | 100 | 1011.5 |
| 20260904101530 | 48 | 83 | 0.0 | 2.0 | 0.00 | 0.12 | 0.00 | 100 | 1011.4 |
| 20260904100143 | 48 | 69 | 0.0 | 3.0 | 0.00 | 0.13 | 0.00 | 100 | 1011.3 |
| 20260904094532 | 48 | 178 | 0.0 | 2.0 | 0.00 | 0.14 | 0.00 | 100 | 1011.2 |
| 20260904093029 | 48 | 194 | 1.0 | 3.0 | 0.00 | 0.15 | 0.00 | 100 | 1011.1 |
| 20260904091526 | 48 | 134 | 0.0 | 2.0 | 0.00 | 0.16 | 0.00 | 100 | 1011.2 |
| 20260904090107 | 47 | 121 | 1.0 | 2.0 | 0.00 | 0.17 | 0.00 | 100 | 1011.1 |
| 20260904084531 | 47 | 348 | 0.0 | 3.0 | 0.00 | 0.18 | 0.00 | 100 | 1011.1 |
| 20260904081531 | 48 | 189 | 0.0 | 2.0 | 0.00 | 0.18 | 0.00 | 100 | 1011.0 |
| 20260904080032 | 49 | 139 | 2.0 | 3.0 | 0.00 | 0.18 | 0.00 | 100 | 1011.1 |
| 20260904074530 | 48 | 136 | 2.0 | 4.0 | 0.00 | 0.18 | 0.00 | 100 | 1011.1 |
| 20260904073028 | 48 | 135 | 0.0 | 3.0 | 0.00 | 0.18 | 0.00 | 100 | 1011.1 |
| 20260904070029 | 48 | 157 | 0.0 | 0.0 | 0.00 | 0.18 | 0.00 | 100 | 1011.0 |
| 20260904064529 | 48 | 171 | 0.0 | 2.0 | 0.00 | 0.18 | 0.18 | 100 | 1011.0 |
| 20260904063032 | 48 | 180 | 0.0 | 1.0 | 0.00 | 0.18 | 0.18 | 100 | 1011.0 |
| 20260904061530 | 49 | 184 | 2.0 | 4.0 | 0.00 | 0.18 | 0.18 | 100 | 1010.9 |
| 20260904060030 | 49 | 360 | 0.0 | 2.0 | 0.00 | 0.18 | 0.18 | 100 | 1010.9 |
| 20260904054533 | 49 | 135 | 1.0 | 2.0 | 0.00 | 0.18 | 0.18 | 100 | 1010.9 |
| 20260904053032 | 50 | 135 | 0.0 | 0.0 | 0.00 | 0.18 | 0.18 | 100 | 1010.9 |
| 20260904051531 | 50 | 135 | 0.0 | 2.0 | 0.00 | 0.18 | 0.18 | 100 | 1011.0 |
| 20260904050029 | 50 | 135 | 0.0 | 1.0 | 0.00 | 0.18 | 0.18 | 100 | 1010.9 |